EW9119 Weather Reports


time (UTC)temp
C
wind
direction
speed
KPH
gust
KPH
rain 1hr
cm
rain 24hr
cm
rain mn
cm
humidity
%
barometer
mb
20260502123021 10 84 0.0 0.0 0.00 0.00 0.00 62 1011.8
20260502121521 10 22 0.0 0.0 0.00 0.00 0.00 54 1012.0
20260502114508 10 262 0.0 0.0 0.00 0.00 0.00 45 1011.8
20260502113012 10 281 0.0 0.0 0.00 0.00 0.00 43 1011.9
20260502111602 10 329 0.0 0.0 0.00 0.00 0.00 31 1011.7
20260502110100 10 351 0.0 0.0 0.00 0.00 0.00 32 1011.8
20260502104553 10 20 0.0 0.0 0.00 0.00 0.00 22 1011.5
20260502103053 10 347 0.0 0.0 0.00 0.00 0.00 9 1011.8
20260502101604 10 288 0.0 0.0 0.00 0.00 0.00 1 1011.7
20260502091524 10 57 0.0 0.0 0.00 0.00 0.00 1 1011.7
20260502070046 11 57 0.0 0.0 0.00 0.00 0.00 1 1010.6
20260502064544 11 57 0.0 0.0 0.00 0.00 0.00 1 1010.9
20260502063039 11 57 0.0 0.0 0.00 0.00 0.00 1 1011.0
20260502061535 11 57 0.0 0.0 0.00 0.00 0.00 1 1011.1
20260502060028 11 57 0.0 0.0 0.00 0.00 0.00 2 1011.3
20260502054524 11 57 0.0 0.0 0.00 0.00 0.00 6 1011.2
20260502053020 11 57 0.0 0.0 0.00 0.00 0.00 9 1011.3
20260501234504 16 312 0.0 0.0 0.00 0.00 0.00 62 1009.2
20260501233059 16 109 0.0 0.0 0.00 0.00 0.00 62 1009.3
20260501231602 17 221 0.0 0.0 0.00 0.00 0.00 61 1009.2
20260501230053 17 139 0.0 0.0 0.00 0.00 0.00 60 1009.2
20260501224558 17 142 0.0 0.0 0.00 0.00 0.00 58 1009.2
20260501223044 18 161 0.0 0.0 0.00 0.00 0.00 57 1009.2
20260501221559 18 203 0.0 0.0 0.00 0.00 0.00 55 1009.2
20260501220043 18 58 0.0 0.0 0.00 0.00 0.00 57 1009.3
20260501214532 18 113 0.0 0.0 0.00 0.00 0.00 54 1009.4
20260501213032 18 302 0.0 0.0 0.00 0.00 0.00 52 1009.5
20260501211522 18 121 0.0 0.0 0.00 0.00 0.00 53 1009.6
20260501210018 18 90 0.0 0.0 0.00 0.00 0.00 51 1009.6
20260501204515 18 80 0.0 0.0 0.00 0.00 0.00 51 1009.7
20260501203010 18 129 0.0 1.6 0.00 0.00 0.00 50 1009.9
20260501201503 18 300 0.0 0.0 0.00 0.00 0.00 51 1010.0
20260501200100 18 184 0.0 0.0 0.00 0.00 0.00 52 1010.5
20260501194556 18 355 0.0 1.6 0.00 0.00 0.00 49 1010.8
20260501193051 18 348 0.0 0.0 0.00 0.00 0.00 48 1010.9
20260501191549 18 118 0.0 0.0 0.00 0.00 0.00 49 1011.3
20260501190056 18 108 0.0 0.0 0.00 0.00 0.00 48 1011.6
20260501184538 18 311 0.0 0.0 0.00 0.00 0.00 47 1011.7
20260501183035 18 86 0.0 0.0 0.00 0.00 0.00 46 1012.0
20260501181530 18 154 0.0 0.0 0.00 0.00 0.00 46 1012.3
20260501180025 18 81 0.0 0.0 0.00 0.00 0.00 47 1012.3
20260501174520 18 298 0.0 0.0 0.00 0.00 0.00 50 1012.6
20260501173016 17 42 0.0 0.0 0.00 0.00 0.00 49 1012.8
20260501171512 17 159 0.0 0.0 0.00 0.00 0.00 51 1013.0
20260501170007 17 110 0.0 0.0 0.00 0.00 0.00 56 1012.9
20260501164605 16 42 0.0 0.0 0.00 0.00 0.00 51 1013.3
20260501163104 16 264 0.0 1.6 0.00 0.00 0.00 55 1013.5
20260501161603 16 140 0.0 0.0 0.00 0.00 0.00 56 1013.7
20260501160107 15 317 0.0 0.0 0.00 0.00 0.00 53 1013.9
20260501154623 15 76 0.0 1.6 0.00 0.00 0.00 56 1014.0
20260501153042 15 168 0.0 0.0 0.00 0.00 0.00 54 1014.3
20260501151539 15 161 0.0 0.0 0.00 0.00 0.00 57 1014.5
20260501150052 14 97 0.0 0.0 0.00 0.00 0.00 57 1014.5